CZ-6A DEB, 54345

Orbit data source: Space-Track

CZ-6A DEB, 54345 is space debris in SSO originally from a launch on Fri, 11 Nov 2022 UTC launched from the Taiyaun Space Center, China (TSC). Debris objects in space refer to the collection of defunct objects orbiting the Earth. Examples of debris include non-operational satellites, rocket bodies, and fragments generated from explosions, collisions, or faulty payload assembly.

Loading next visibility...
Identifier
54345, 2022-151CQ
Orbit
SSO
Country
Flag of CNCN / PRC
Related business
Manufacturer
SAST
Mission
Spacecraft
Bus & Motor
Unknown
Mass
Unknown
Launch date (UTC)
2022-11-11 (4 years ago)
Launch vehicle
Unknown
Launch site
Taiyaun Space Center, China (TSC)
Object type
Payload
Rocket body
Debris
Shape & HBR
Unknown shape, 0.1 m
Radar Cross Section
Medium (>0.1 m² and <1 m²)

Expand to show TLE details & history
Last TLE update: 6 hours ago

TLE from 6 hours ago
0 CZ-6A DEB
1 54345U 22151CQ  26236.55063187  .00004817  00000-0  12904-2 0  9994
2 54345  98.6621 268.8013 0051951 216.9716 142.7892 14.47893864197437
Epoch: 2026-08-24T13:12Z
TLE epoch observation values (Epoch: 2026-08-24T13:12:54.593Z)
Latitude
0.00002°
Longitude
97.74311°
Altitude
764.986 km
Speed
7.456 km/s
True Right ascension
17h 55m 12s
True Declination
0° 00' 00"
Sunlit
Object was in daylight at epoch
Visualization orbit readout
Latitude
Unknown
Longitude
Unknown
Altitude
Unknown
Speed
Unknown
Apparent Right ascension
Unknown
Apparent Declination
Unknown
Sunlit
N/A
Visualization observer readout
Local Sidereal Time
10:16:35
Azimuth
Unknown
Elevation
Unknown
Doppler factor
Unknown
Orbital elements
Apogee altitude
766.58 km
Perigee altitude
692.729 km
Semi-major axis
7,107.792 km
Eccentricity
0.0052
Inclination
98.6621°
RAAN
268.8013°
Arg. of periapsis
216.9716°
True anomaly
143.14736°
Mean anomaly
142.7892°
Eccentric anomaly
142.96847°
Mean motion
3.62194 °/min
Orbital period
99.39 mins
BSTAR
0.0012904
Loading maneuver chart data...
Computing Atmospheric mass density...

Documentation

Showing up to 5 results
|